Time,TemperatureF,DewpointF,PressureIn,WindDirection,WindDirectionDegrees,WindSpeedMPH,WindSpeedGustMPH,Humidity,HourlyPrecipIn,Conditions,Clouds,dailyrainin,SoftwareType,DateUTC
2013-05-26 15:22:00,85.0,70.0,-100.00,SSW,195,12.0,17.0,62,0.00,,,-99.99,,2013-05-26 20:22:00,
2013-05-26 15:32:00,85.0,70.0,-100.00,SSW,195,16.0,24.0,59,0.00,,,-99.99,,2013-05-26 20:32:00,
2013-05-26 15:42:00,85.0,70.0,-100.00,SSW,195,16.0,24.0,59,0.00,,,-99.99,,2013-05-26 20:42:00,
2013-05-26 15:52:00,86.0,70.0,-100.00,South,190,11.0,19.0,59,0.00,,,-99.99,,2013-05-26 20:52:00,
2013-05-26 16:01:00,86.0,70.0,-100.00,South,190,11.0,19.0,59,0.00,,,-99.99,,2013-05-26 21:01:00,
2013-05-26 16:11:00,86.0,70.0,-100.00,South,180,17.0,22.0,59,0.00,,,-99.99,,2013-05-26 21:11:00,
2013-05-26 16:22:00,86.0,70.0,-100.00,South,180,17.0,22.0,59,0.00,,,-99.99,,2013-05-26 21:22:00,
2013-05-26 16:33:00,85.0,70.0,-100.00,SSW,195,14.0,21.0,59,0.00,,,-99.99,,2013-05-26 21:33:00,
2013-05-26 16:43:00,85.0,70.0,-100.00,SSW,195,14.0,21.0,59,0.00,,,-99.99,,2013-05-26 21:43:00,
2013-05-26 16:53:00,85.0,69.0,-100.00,SSW,205,12.0,18.0,58,0.00,,,-99.99,,2013-05-26 21:53:00,
2013-05-26 17:02:00,85.0,69.0,-100.00,SSW,205,12.0,18.0,58,0.00,,,-99.99,,2013-05-26 22:02:00,
2013-05-26 17:12:00,86.0,70.0,-100.00,SSW,195,15.0,19.0,59,0.00,,,-99.99,,2013-05-26 22:12:00,
2013-05-26 17:23:00,86.0,71.0,-100.00,South,185,13.0,21.0,60,0.00,,,-99.99,,2013-05-26 22:23:00,
2013-05-26 17:33:00,86.0,71.0,-100.00,South,190,17.0,23.0,60,0.00,,,-99.99,,2013-05-26 22:33:00,
2013-05-26 17:42:00,86.0,71.0,-100.00,South,190,17.0,23.0,60,0.00,,,-99.99,,2013-05-26 22:42:00,
2013-05-26 17:53:00,85.0,71.0,-100.00,SSW,200,17.0,24.0,61,0.00,,,-99.99,,2013-05-26 22:53:00,
2013-05-26 18:02:00,85.0,71.0,-100.00,SSW,200,17.0,24.0,61,0.00,,,-99.99,,2013-05-26 23:02:00,
2013-05-26 18:11:00,85.0,70.0,-100.00,SSW,200,21.0,29.0,61,0.00,,,-99.99,,2013-05-26 23:11:00,
2013-05-26 18:22:00,84.0,70.0,-100.00,SSW,195,19.0,26.0,62,0.00,,,-99.99,,2013-05-26 23:22:00,
2013-05-26 18:32:00,83.0,70.0,-100.00,SSW,205,17.0,24.0,63,0.00,,,-99.99,,2013-05-26 23:32:00,
2013-05-26 18:43:00,83.0,70.0,-100.00,SSW,205,17.0,24.0,63,0.00,,,-99.99,,2013-05-26 23:43:00,
2013-05-26 18:51:00,84.0,69.0,-100.00,SSW,210,17.0,23.0,62,0.00,,,-99.99,,2013-05-26 23:51:00,
2013-05-26 19:02:00,84.0,69.0,-100.00,SSW,210,17.0,23.0,62,0.00,,,-99.99,,2013-05-27 00:02:00,
2013-05-26 19:11:00,83.0,69.0,-100.00,SSW,195,14.0,24.0,62,0.00,,,-99.99,,2013-05-27 00:11:00,
2013-05-26 19:21:00,82.0,69.0,-100.00,SSW,200,16.0,24.0,63,0.00,,,-99.99,,2013-05-27 00:21:00,
2013-05-26 19:32:00,82.0,69.0,-100.00,SSW,200,14.0,21.0,64,0.00,,,-99.99,,2013-05-27 00:32:00,
2013-05-26 19:41:00,82.0,69.0,-100.00,SSW,200,14.0,21.0,64,0.00,,,-99.99,,2013-05-27 00:41:00,
2013-05-26 19:52:00,81.0,68.0,-100.00,SSW,200,13.0,19.0,64,0.00,,,-99.99,,2013-05-27 00:52:00,
2013-05-26 20:01:00,81.0,68.0,-100.00,SSW,200,13.0,19.0,64,0.00,,,-99.99,,2013-05-27 01:01:00,
2013-05-26 20:11:00,81.0,68.0,-100.00,SSW,210,12.0,17.0,65,0.00,,,-99.99,,2013-05-27 01:11:00,
2013-05-26 20:22:00,81.0,69.0,-100.00,SSW,200,12.0,16.0,66,0.00,,,-99.99,,2013-05-27 01:22:00,
2013-05-26 20:31:00,80.0,69.0,-100.00,SSW,195,9.0,12.0,68,0.00,,,-99.99,,2013-05-27 01:31:00,
2013-05-26 20:42:00,80.0,69.0,-100.00,SSW,195,9.0,12.0,68,0.00,,,-99.99,,2013-05-27 01:42:00,
2013-05-26 20:52:00,80.0,69.0,-100.00,South,170,9.0,13.0,68,0.00,,,-99.99,,2013-05-27 01:52:00,
2013-05-26 21:01:00,80.0,69.0,-100.00,South,170,9.0,13.0,68,0.00,,,-99.99,,2013-05-27 02:01:00,
2013-05-26 21:11:00,80.0,69.0,-100.00,South,170,9.0,14.0,68,0.00,,,-99.99,,2013-05-27 02:11:00,
2013-05-26 21:21:00,80.0,69.0,-100.00,South,175,10.0,16.0,69,0.00,,,-99.99,,2013-05-27 02:21:00,
2013-05-26 21:32:00,79.0,69.0,-100.00,South,185,11.0,16.0,71,0.00,,,-99.99,,2013-05-27 02:32:00,
2013-05-26 21:42:00,79.0,69.0,-100.00,South,185,11.0,16.0,71,0.00,,,-99.99,,2013-05-27 02:42:00,
2013-05-26 21:52:00,80.0,69.0,-100.00,SSE,150,9.0,14.0,71,0.00,,,-99.99,,2013-05-27 02:52:00,
2013-05-26 22:02:00,80.0,69.0,-100.00,SSE,150,9.0,14.0,71,0.00,,,-99.99,,2013-05-27 03:02:00,
2013-05-26 22:11:00,79.0,69.0,-100.00,SSE,165,11.0,14.0,71,0.00,,,-99.99,,2013-05-27 03:11:00,
2013-05-26 22:21:00,79.0,69.0,-100.00,SSE,165,11.0,16.0,72,0.00,,,-99.99,,2013-05-27 03:21:00,
2013-05-26 22:33:00,79.0,69.0,-100.00,SSE,160,8.0,16.0,73,0.00,,,-99.99,,2013-05-27 03:33:00,
2013-05-26 22:42:00,79.0,69.0,-100.00,SSE,160,8.0,16.0,73,0.00,,,-99.99,,2013-05-27 03:42:00,
2013-05-26 22:53:00,75.0,67.0,-100.00,SE,135,14.0,18.0,75,0.00,,,-99.99,,2013-05-27 03:53:00,
2013-05-26 23:02:00,75.0,67.0,-100.00,SE,135,14.0,18.0,75,0.00,,,-99.99,,2013-05-27 04:02:00,
2013-05-26 23:12:00,74.0,66.0,-100.00,SE,145,15.0,21.0,76,0.00,,,-99.99,,2013-05-27 04:12:00,
2013-05-26 23:23:00,73.0,65.0,-100.00,SE,145,17.0,21.0,76,0.00,,,-99.99,,2013-05-27 04:23:00,
2013-05-26 23:33:00,73.0,64.0,-100.00,SSE,150,16.0,21.0,74,0.00,,,-99.99,,2013-05-27 04:33:00,
2013-05-26 23:42:00,73.0,64.0,-100.00,SSE,150,16.0,21.0,74,0.00,,,-99.99,,2013-05-27 04:42:00,
2013-05-26 23:52:00,72.0,64.0,-100.00,SSE,160,17.0,23.0,74,0.00,,,-99.99,,2013-05-27 04:52:00,